EW6449 Weather Reports


time (UTC)temp
F
wind
direction
speed
knots
gust
knots
rain 1hr
in
rain 24hr
in
rain mn
in
humidity
%
barometer
mb
20260507143424 78 34 3.5 7.8 0.00 0.00 0.00 20 1008.5
20260507142920 77 38 2.6 5.2 0.00 0.00 0.00 21 1008.6
20260507142416 77 354 5.2 7.0 0.00 0.00 0.00 21 1008.7
20260507141914 76 7 1.7 5.2 0.00 0.00 0.00 22 1008.8
20260507141410 76 36 2.6 4.3 0.00 0.00 0.00 23 1008.6
20260507140906 76 30 1.7 4.3 0.00 0.00 0.00 24 1008.5
20260507140403 75 45 2.6 5.2 0.00 0.00 0.00 24 1008.6
20260507135901 75 353 4.3 4.3 0.00 0.00 0.00 24 1008.7
20260507135357 75 356 3.5 7.8 0.00 0.00 0.00 25 1008.6
20260507134855 74 32 2.6 5.2 0.00 0.00 0.00 25 1008.7
20260507134351 74 347 2.6 7.0 0.00 0.00 0.00 26 1008.4
20260507133847 73 350 2.6 5.2 0.00 0.00 0.00 28 1008.2
20260507133342 73 356 2.6 4.3 0.00 0.00 0.00 27 1008.5
20260507132842 73 0 0.0 6.1 0.00 0.00 0.00 27 1008.3
20260507132337 73 20 2.6 7.0 0.00 0.00 0.00 28 1008.4
20260507131835 73 6 2.6 4.3 0.00 0.00 0.00 28 1008.4
20260507131331 72 12 3.5 6.1 0.00 0.00 0.00 28 1008.3
20260507130828 72 0 1.7 7.0 0.00 0.00 0.00 28 1008.2
20260507130325 72 0 3.5 7.8 0.00 0.00 0.00 28 1008.1
20260507125824 72 4 4.3 8.7 0.00 0.00 0.00 28 1008.1
20260507125321 71 16 3.5 6.1 0.00 0.00 0.00 29 1008.0
20260507124819 72 4 3.5 10.4 0.00 0.00 0.00 29 1007.9
20260507124315 72 12 6.1 9.6 0.00 0.00 0.00 28 1008.1
20260507123813 72 8 3.5 10.4 0.00 0.00 0.00 29 1008.0
20260507123310 71 39 2.6 8.7 0.00 0.00 0.00 28 1008.0
20260507122806 71 341 5.2 6.1 0.00 0.00 0.00 29 1007.9
20260507122306 71 49 4.3 10.4 0.00 0.00 0.00 28 1007.7
20260507121758 71 4 5.2 8.7 0.00 0.00 0.00 28 1007.8
20260507121254 72 346 3.5 9.6 0.00 0.00 0.00 28 1008.0
20260507120750 71 12 4.3 9.6 0.00 0.00 0.00 28 1008.0
20260507120247 71 16 1.7 7.8 0.00 0.00 0.00 29 1008.1
20260507115743 71 26 1.7 10.4 0.00 0.00 0.00 29 1008.0
20260507115239 71 19 4.3 10.4 0.00 0.00 0.00 28 1008.0
20260507114735 71 20 3.5 9.6 0.00 0.00 0.00 29 1008.3
20260507114232 69 21 3.5 6.1 0.00 0.00 0.00 29 1008.1
20260507113730 68 353 2.6 6.1 0.00 0.00 0.00 31 1008.2
20260507113227 68 19 1.7 4.3 0.00 0.00 0.00 31 1008.2
20260507112724 67 344 1.7 2.6 0.00 0.00 0.00 32 1008.3
20260507112221 68 29 2.6 3.5 0.00 0.00 0.00 31 1008.4
20260507111718 68 0 2.6 2.6 0.00 0.00 0.00 31 1008.2
20260507111215 68 12 2.6 4.3 0.00 0.00 0.00 31 1008.6
20260507110711 68 19 1.7 2.6 0.00 0.00 0.00 31 1008.3
20260507110208 68 0 1.7 4.3 0.00 0.00 0.00 32 1008.5
20260507105705 66 357 1.7 2.6 0.00 0.00 0.00 33 1008.6
20260507105200 67 6 0.9 1.7 0.00 0.00 0.00 32 1008.5
20260507104658 67 352 1.7 2.6 0.00 0.00 0.00 31 1008.7
20260507104154 68 15 1.7 2.6 0.00 0.00 0.00 31 1008.6
20260507103650 68 0 0.9 3.5 0.00 0.00 0.00 31 1008.8
20260507103147 68 24 1.7 2.6 0.00 0.00 0.00 31 1008.6
20260507102644 68 24 3.5 3.5 0.00 0.00 0.00 32 1008.7
20260507102140 67 353 2.6 2.6 0.00 0.00 0.00 33 1008.8
20260507101636 67 10 1.7 2.6 0.00 0.00 0.00 33 1008.9
20260507101132 67 28 1.7 2.6 0.00 0.00 0.00 32 1008.7
20260507100630 66 356 1.7 2.6 0.00 0.00 0.00 33 1008.8
20260507100128 66 23 1.7 2.6 0.00 0.00 0.00 33 1008.6
20260507095626 66 6 2.6 3.5 0.00 0.00 0.00 34 1008.8
20260507095122 65 350 2.6 3.5 0.00 0.00 0.00 34 1008.9
20260507094618 65 0 1.7 2.6 0.00 0.00 0.00 34 1008.8
20260507094115 66 8 1.7 2.6 0.00 0.00 0.00 34 1008.8
20260507093612 65 0 1.7 4.3 0.00 0.00 0.00 35 1008.8
20260507093111 65 10 2.6 2.6 0.00 0.00 0.00 35 1009.0
20260507092607 65 355 0.9 2.6 0.00 0.00 0.00 34 1008.8
20260507092103 65 0 0.9 2.6 0.00 0.00 0.00 34 1008.8
20260507091600 65 12 1.7 1.7 0.00 0.00 0.00 34 1008.8
20260507091056 66 8 1.7 2.6 0.00 0.00 0.00 33 1008.8
20260507090552 66 10 1.7 2.6 0.00 0.00 0.00 33 1008.7
20260507090049 66 0 1.7 1.7 0.00 0.00 0.00 33 1009.0
20260507085546 66 6 2.6 3.5 0.00 0.00 0.00 34 1008.8
20260507085043 66 3 1.7 2.6 0.00 0.00 0.00 34 1008.8
20260507084540 66 355 0.9 1.7 0.00 0.00 0.00 35 1008.9
20260507084037 65 5 0.9 1.7 0.00 0.00 0.00 34 1009.1
20260507083533 65 16 1.7 1.7 0.00 0.00 0.00 35 1009.1
20260507083030 66 0 0.9 1.7 0.00 0.00 0.00 35 1008.9
20260507082526 66 36 0.0 1.7 0.00 0.00 0.00 35 1009.0
20260507082023 66 11 1.7 1.7 0.00 0.00 0.00 36 1008.9
20260507081519 66 20 0.9 1.7 0.00 0.00 0.00 36 1009.0
20260507081016 67 26 1.7 2.6 0.00 0.00 0.00 35 1009.0
20260507080512 67 12 1.7 2.6 0.00 0.00 0.00 34 1009.0
20260507080008 66 21 2.6 2.6 0.00 0.00 0.00 36 1009.1
20260507075504 66 11 1.7 1.7 0.00 0.00 0.00 38 1009.0
20260507075001 66 6 0.9 1.7 0.00 0.00 0.00 38 1009.1
20260507074457 66 16 1.7 1.7 0.00 0.00 0.00 37 1009.2
20260507073955 66 20 0.0 1.7 0.00 0.00 0.00 36 1009.1
20260507073451 66 16 1.7 1.7 0.00 0.00 0.00 36 1009.1
20260507072948 66 18 0.9 1.7 0.00 0.00 0.00 36 1009.0
20260507072446 66 20 0.9 1.7 0.00 0.00 0.00 36 1009.3
20260507071943 67 19 1.7 1.7 0.00 0.00 0.00 36 1009.0
20260507071440 66 29 1.7 1.7 0.00 0.00 0.00 36 1009.1
20260507070936 66 29 0.9 1.7 0.00 0.00 0.00 36 1009.0
20260507070434 66 20 0.0 0.9 0.00 0.00 0.00 35 1009.1
20260507065930 66 29 0.9 1.7 0.00 0.00 0.00 36 1009.1
20260507065427 67 29 0.0 0.9 0.00 0.00 0.00 35 1009.1
20260507064925 67 23 1.7 1.7 0.00 0.00 0.00 35 1009.1
20260507064423 67 23 0.0 1.7 0.00 0.00 0.00 35 1009.2
20260507063920 67 7 0.9 0.9 0.00 0.00 0.00 35 1008.8
20260507063417 68 14 0.9 1.7 0.00 0.00 0.00 34 1009.1
20260507062914 68 14 1.7 1.7 0.00 0.00 0.00 37 1009.0
20260507062411 68 10 1.7 1.7 0.00 0.00 0.00 34 1009.0
20260507061908 69 16 1.7 1.7 0.00 0.00 0.00 34 1009.1
20260507061406 69 16 1.7 1.7 0.00 0.00 0.00 33 1009.0
20260507060905 69 23 0.9 1.7 0.00 0.00 0.00 33 1009.0
20260507060401 69 24 1.7 1.7 0.00 0.00 0.00 33 1008.7
20260507055858 69 11 1.7 1.7 0.00 0.00 0.00 34 1008.9
20260507055353 69 6 0.9 1.7 0.00 0.00 0.00 34 1008.9
20260507054850 69 23 0.0 0.9 0.00 0.00 0.00 32 1009.2
20260507054346 69 8 0.0 1.7 0.00 0.00 0.00 34 1009.1
20260507053843 69 12 0.9 1.7 0.00 0.00 0.00 33 1008.9
20260507053341 69 20 0.9 1.7 0.00 0.00 0.00 34 1008.9
20260507052840 70 8 0.0 1.7 0.00 0.00 0.00 32 1008.9
20260507052336 71 23 1.7 1.7 0.00 0.00 0.00 31 1009.0
20260507051834 71 29 0.0 0.9 0.00 0.00 0.00 30 1009.2
20260507051331 72 15 0.9 0.9 0.00 0.00 0.00 32 1009.2
20260507050828 72 23 0.0 0.9 0.00 0.00 0.00 31 1009.0
20260507050324 71 35 0.0 1.7 0.00 0.00 0.00 31 1009.0
20260507045821 70 23 0.0 1.7 0.00 0.00 0.00 33 1008.8
20260507045318 70 26 0.9 1.7 0.00 0.00 0.00 32 1008.7
20260507044815 71 26 0.9 1.7 0.00 0.00 0.00 33 1008.8
20260507044311 71 20 0.9 1.7 0.00 0.00 0.00 33 1008.8
20260507043807 71 14 0.9 1.7 0.00 0.00 0.00 31 1008.6
20260507043304 72 11 1.7 1.7 0.00 0.00 0.00 31 1008.9
20260507042801 73 6 0.9 1.7 0.00 0.00 0.00 31 1008.6
20260507042256 73 6 0.9 1.7 0.00 0.00 0.00 30 1008.7
20260507041754 74 14 0.9 0.9 0.00 0.00 0.00 29 1008.6
20260507041250 74 23 0.9 0.9 0.00 0.00 0.00 29 1008.4
20260507040747 74 15 0.9 0.9 0.00 0.00 0.00 28 1008.4
20260507040243 75 14 0.9 1.7 0.00 0.00 0.00 28 1008.1
20260507035739 75 14 0.9 0.9 0.00 0.00 0.00 28 1008.3
20260507035234 75 18 0.9 1.7 0.00 0.00 0.00 29 1008.2
20260507034732 75 7 0.9 0.9 0.00 0.00 0.00 27 1008.2
20260507034229 76 26 0.9 1.7 0.00 0.00 0.00 27 1008.2
20260507033728 77 29 0.9 1.7 0.00 0.00 0.00 26 1008.1
20260507033225 77 26 1.7 1.7 0.00 0.00 0.00 25 1007.8
20260507032722 78 19 1.7 1.7 0.00 0.00 0.00 25 1008.0
20260507032218 78 19 1.7 1.7 0.00 0.00 0.00 25 1008.0
20260507031715 78 14 0.9 1.7 0.00 0.00 0.00 25 1007.7
20260507031211 78 20 0.9 1.7 0.00 0.00 0.00 24 1007.8
20260507030708 78 19 1.7 1.7 0.00 0.00 0.00 25 1007.8
20260507030206 78 96 0.0 2.6 0.00 0.00 0.00 24 1007.6
20260507025703 78 90 0.0 1.7 0.00 0.00 0.00 24 1007.3
20260507025159 78 74 0.9 0.9 0.00 0.00 0.00 24 1007.2
20260507024658 79 66 0.0 1.7 0.00 0.00 0.00 24 1007.2
20260507024155 79 81 0.9 0.9 0.00 0.00 0.00 24 1007.3
20260507023650 79 90 0.9 1.7 0.00 0.00 0.00 24 1007.2
20260507023148 79 90 0.0 0.0 0.00 0.00 0.00 24 1007.0
20260507022644 79 66 0.9 0.9 0.00 0.00 0.00 24 1007.0
20260507022140 80 98 0.0 1.7 0.00 0.00 0.00 24 1007.1
20260507021637 79 60 0.0 1.7 0.00 0.00 0.00 24 1007.1
20260507021132 79 35 0.9 1.7 0.00 0.00 0.00 24 1006.9
20260507020631 80 32 1.7 2.6 0.00 0.00 0.00 24 1006.9
20260507020126 80 81 0.0 1.7 0.00 0.00 0.00 24 1006.7
20260507015625 80 90 0.0 1.7 0.00 0.00 0.00 24 1006.9
20260507015122 80 53 1.7 1.7 0.00 0.00 0.00 24 1006.8
20260507014619 80 105 0.9 1.7 0.00 0.00 0.00 24 1006.9
20260507014115 81 348 0.0 2.6 0.00 0.00 0.00 23 1006.9
20260507013612 81 23 0.0 1.7 0.00 0.00 0.00 23 1007.0
20260507013108 81 69 0.0 1.7 0.00 0.00 0.00 23 1006.9
20260507012606 82 33 1.7 2.6 0.00 0.00 0.00 23 1006.6
20260507012101 84 26 0.0 2.6 0.00 0.00 0.00 22 1006.8
20260507011600 84 54 0.0 1.7 0.00 0.00 0.00 22 1006.8
20260507011055 84 69 0.9 1.7 0.00 0.00 0.00 22 1006.9
20260507010550 84 60 0.0 1.7 0.00 0.00 0.00 22 1006.8
20260507010047 83 90 0.9 1.7 0.00 0.00 0.00 22 1006.9
20260507005544 84 75 0.9 1.7 0.00 0.00 0.00 22 1006.7
20260507005040 85 23 0.0 1.7 0.00 0.00 0.00 22 1006.8
20260507004537 84 69 0.9 1.7 0.00 0.00 0.00 22 1006.6
20260507004035 86 54 0.9 4.3 0.00 0.00 0.00 21 1006.7
20260507003530 86 339 1.7 1.7 0.00 0.00 0.00 22 1006.7
20260507003026 85 5 1.7 2.6 0.00 0.00 0.00 22 1006.7
20260507002522 84 114 1.7 2.6 0.00 0.00 0.00 23 1006.7
20260507002019 83 75 0.9 2.6 0.00 0.00 0.00 23 1006.7
20260507001515 85 38 1.7 2.6 0.00 0.00 0.00 22 1006.6
20260507001013 84 90 0.9 3.5 0.00 0.00 0.00 22 1006.8
20260507000508 84 35 0.0 2.6 0.00 0.00 0.00 23 1006.6
20260507000004 83 120 0.9 2.6 0.00 0.00 0.00 23 1006.8
20260506235502 83 56 1.7 3.5 0.00 0.00 0.00 22 1006.7
20260506234957 84 49 1.7 1.7 0.00 0.00 0.00 22 1006.9
20260506234455 85 41 1.7 2.6 0.00 0.00 0.00 22 1006.9
20260506233952 84 110 1.7 2.6 0.00 0.00 0.00 22 1006.9
20260506233449 84 7 1.7 4.3 0.00 0.00 0.00 23 1006.9
20260506232945 85 112 1.7 1.7 0.00 0.00 0.00 22 1007.1
20260506232442 83 41 1.7 2.6 0.00 0.00 0.00 23 1007.0
20260506231937 84 45 0.0 2.6 0.00 0.00 0.00 23 1007.1
20260506231436 84 99 0.9 2.6 0.00 0.00 0.00 23 1007.1
20260506230932 85 37 1.7 4.3 0.00 0.00 0.00 24 1007.1
20260506230428 84 23 2.6 2.6 0.00 0.00 0.00 25 1007.2
20260506225925 85 8 0.0 2.6 0.00 0.00 0.00 23 1007.2
20260506225423 84 41 0.0 2.6 0.00 0.00 0.00 23 1007.1
20260506224919 84 95 1.7 3.5 0.00 0.00 0.00 22 1007.2
20260506224417 83 74 0.0 2.6 0.00 0.00 0.00 23 1007.5
20260506223913 83 97 2.6 2.6 0.00 0.00 0.00 23 1007.3
20260506223408 84 82 0.9 1.7 0.00 0.00 0.00 23 1007.6
20260506222906 85 355 1.7 4.3 0.00 0.00 0.00 22 1007.7
20260506222402 85 14 2.6 2.6 0.00 0.00 0.00 21 1007.7
20260506221859 84 23 0.9 1.7 0.00 0.00 0.00 24 1007.8
20260506221356 83 0 2.6 3.5 0.00 0.00 0.00 24 1008.1
20260506220854 83 77 0.9 1.7 0.00 0.00 0.00 23 1007.9
20260506220349 83 70 2.6 4.3 0.00 0.00 0.00 25 1008.0
20260506215846 82 20 0.9 1.7 0.00 0.00 0.00 25 1008.0
20260506215342 82 123 2.6 2.6 0.00 0.00 0.00 24 1008.1
20260506214838 84 63 0.0 3.5 0.00 0.00 0.00 23 1008.2
20260506214335 84 20 0.9 2.6 0.00 0.00 0.00 24 1008.3
20260506213833 83 331 4.3 4.3 0.00 0.00 0.00 23 1008.4
20260506213330 82 95 1.7 2.6 0.00 0.00 0.00 24 1008.6
20260506212828 82 352 0.9 2.6 0.00 0.00 0.00 23 1008.4
20260506212323 82 63 0.9 1.7 0.00 0.00 0.00 24 1008.5
20260506211818 82 12 0.0 2.6 0.00 0.00 0.00 26 1008.6
20260506211315 81 14 2.6 2.6 0.00 0.00 0.00 29 1008.6
20260506210812 81 270 0.9 2.6 0.00 0.00 0.00 25 1008.8
20260506210309 82 19 2.6 3.5 0.00 0.00 0.00 24 1008.7
20260506205806 82 36 1.7 2.6 0.00 0.00 0.00 24 1009.0
20260506205305 80 12 0.9 1.7 0.00 0.00 0.00 26 1008.9
20260506204758 81 35 0.9 1.7 0.00 0.00 0.00 25 1009.1
20260506204256 80 29 1.7 2.6 0.00 0.00 0.00 25 1009.2
20260506203754 82 35 0.9 2.6 0.00 0.00 0.00 24 1009.1
20260506203251 81 300 2.6 4.3 0.00 0.00 0.00 24 1009.5
20260506202748 81 273 3.5 4.3 0.00 0.00 0.00 24 1009.3
20260506202244 81 24 0.0 4.3 0.00 0.00 0.00 25 1009.5
20260506201741 80 0 1.7 3.5 0.00 0.00 0.00 24 1009.3
20260506201238 81 35 0.9 3.5 0.00 0.00 0.00 26 1009.4
20260506200735 79 14 0.9 1.7 0.00 0.00 0.00 28 1009.4
20260506200232 79 15 1.7 2.6 0.00 0.00 0.00 24 1009.7
20260506195728 80 22 1.7 3.5 0.00 0.00 0.00 29 1009.8
20260506195225 79 11 1.7 2.6 0.00 0.00 0.00 31 1009.9
20260506194722 78 29 0.0 1.7 0.00 0.00 0.00 27 1009.7
20260506194218 79 97 0.9 4.3 0.00 0.00 0.00 26 1009.8
20260506193716 79 286 1.7 3.5 0.00 0.00 0.00 24 1010.2
20260506193213 80 32 1.7 1.7 0.00 0.00 0.00 29 1009.8
20260506192709 79 90 0.0 2.6 0.00 0.00 0.00 26 1009.9
20260506192206 78 49 1.7 2.6 0.00 0.00 0.00 26 1010.1
20260506191703 79 54 0.0 2.6 0.00 0.00 0.00 27 1009.9
20260506191159 78 0 0.9 4.3 0.00 0.00 0.00 26 1010.2
20260506190657 78 143 1.7 2.6 0.00 0.00 0.00 27 1009.9
20260506190153 78 334 3.5 4.3 0.00 0.00 0.00 26 1010.3
20260506185650 78 334 1.7 4.3 0.00 0.00 0.00 25 1010.4
20260506185146 79 8 1.7 2.6 0.00 0.00 0.00 29 1010.5
20260506184644 78 61 0.0 2.6 0.00 0.00 0.00 27 1010.3
20260506184141 78 352 0.0 2.6 0.00 0.00 0.00 28 1010.4
20260506183638 78 32 1.7 2.6 0.00 0.00 0.00 27 1010.6
20260506183133 77 26 0.0 2.6 0.00 0.00 0.00 29 1010.4
20260506182631 75 354 2.6 6.1 0.00 0.00 0.00 28 1010.5
20260506182128 76 18 2.6 4.3 0.00 0.00 0.00 27 1010.7
20260506181626 78 0 0.9 4.3 0.00 0.00 0.00 29 1010.7
20260506181123 78 354 2.6 5.2 0.00 0.00 0.00 27 1010.7
20260506180620 78 14 1.7 2.6 0.00 0.00 0.00 30 1010.7
20260506180116 77 26 0.9 1.7 0.00 0.00 0.00 30 1010.8
20260506175612 77 12 0.9 3.5 0.00 0.00 0.00 30 1011.0
20260506175108 77 21 1.7 3.5 0.00 0.00 0.00 31 1011.1
20260506174608 76 351 1.7 2.6 0.00 0.00 0.00 29 1011.0
20260506174103 76 60 0.9 1.7 0.00 0.00 0.00 30 1011.1
20260506173601 76 82 0.0 1.7 0.00 0.00 0.00 31 1011.1
20260506173058 76 81 0.0 3.5 0.00 0.00 0.00 30 1011.1
20260506172555 75 340 0.0 2.6 0.00 0.00 0.00 31 1011.1
20260506172051 75 5 1.7 5.2 0.00 0.00 0.00 32 1011.2
20260506171549 74 26 0.0 2.6 0.00 0.00 0.00 33 1011.1
20260506171047 74 32 1.7 2.6 0.00 0.00 0.00 32 1010.8
20260506170544 74 330 1.7 2.6 0.00 0.00 0.00 32 1011.0
20260506170041 74 37 1.7 2.6 0.00 0.00 0.00 34 1010.9
20260506165540 73 34 1.7 2.6 0.00 0.00 0.00 34 1011.1
20260506165036 72 95 1.7 4.3 0.00 0.00 0.00 35 1011.1
20260506164532 72 5 2.6 3.5 0.00 0.00 0.00 33 1010.9
20260506164030 71 34 1.7 1.7 0.00 0.00 0.00 35 1010.9
20260506163526 72 66 1.7 2.6 0.00 0.00 0.00 35 1010.8
20260506163022 71 0 1.7 2.6 0.00 0.00 0.00 35 1011.0
20260506162518 70 15 0.9 1.7 0.00 0.00 0.00 36 1010.8
20260506162015 69 29 0.0 1.7 0.00 0.00 0.00 37 1010.6
20260506161513 69 32 1.7 1.7 0.00 0.00 0.00 39 1010.7
20260506161009 68 35 0.9 1.7 0.00 0.00 0.00 38 1010.9
20260506160507 68 66 0.0 1.7 0.00 0.00 0.00 37 1010.8
20260506160004 68 41 0.0 1.7 0.00 0.00 0.00 39 1010.7
20260506155502 67 10 1.7 1.7 0.00 0.00 0.00 38 1010.9
20260506153634 66 63 0.0 1.7 0.00 0.00 0.00 41 1010.9
20260506153131 66 40 0.0 1.7 0.00 0.00 0.00 42 1010.9
20260506152628 66 29 0.9 1.7 0.00 0.00 0.00 43 1010.9
20260506152126 65 81 0.0 1.7 0.00 0.00 0.00 40 1010.8
20260506151624 64 29 0.0 0.9 0.00 0.00 0.00 39 1010.9
20260506151121 64 40 1.7 1.7 0.00 0.00 0.00 43 1011.1
20260506150618 64 11 1.7 1.7 0.00 0.00 0.00 43 1010.8
20260506150115 64 15 0.0 1.7 0.00 0.00 0.00 43 1010.8
20260506145612 64 47 2.6 3.5 0.00 0.00 0.00 40 1010.8
20260506145108 64 36 1.7 1.7 0.00 0.00 0.00 44 1011.1
20260506144605 64 337 0.0 1.7 0.00 0.00 0.00 40 1010.7
20260506144102 64 0 0.0 1.7 0.00 0.00 0.00 42 1010.9
20260506143600 63 7 0.0 2.6 0.00 0.00 0.00 43 1010.9